Regional Weather Roundup
Issued by NWS

Home | Current Version | Previous Version | Graphics & Text | Print | Product List | Glossary On
Versions: 1 2 3 4 5 6 7 8 9 10 11 12 13 14 15 16 17 18 19 20 21 22 23 24 25 26 27 28 29 30 31 32 33 34 35 36 37 38 39 40 41 42 43 44 45 46 47 48 49
000
ASUS45 KBOI 141110
RWRID
WEATHER ROUNDUP FOR IDAHO
NATIONAL WEATHER SERVICE BOISE ID
500 AM MDT SUN SEP 14 2014

NOTE: "FAIR" INDICATES FEW OR NO CLOUDS BELOW 12000 FEET
WITH NO SIGNIFICANT WEATHER AND/OR OBSTRUCTIONS TO VISIBILITY

IDZ012-014-141200-
SOUTHWEST IDAHO


CITY           SKY/WX    TMP DP  RH WIND       PRES   REMARKS
BOISE          CLEAR     56  30  37 CALM      29.94R
CALDWELL       CLEAR     45  30  57 CALM      29.96S
MOUNTAIN HOME  PTCLDY    48  29  48 NE2       29.95R HAZE
$$

IDZ016-017-141200-
SOUTHCENTRAL IDAHO


CITY           SKY/WX    TMP DP  RH WIND       PRES   REMARKS
BURLEY         CLEAR     49  34  56 CALM      30.00R
JEROME         PTCLDY    51  34  52 E8        29.99S
TWIN FALLS     PTCLDY    56  31  38 S14       29.99R
$$

IDZ019>023-141200-
SOUTHEAST IDAHO


CITY           SKY/WX    TMP DP  RH WIND       PRES   REMARKS
IDAHO FALLS    CLEAR     41  33  73 N3        30.04R
POCATELLO      CLEAR     43  33  68 N6        30.03R
REXBURG        CLEAR     40  33  76 NE3       30.05R
$$

IDZ006-010-011-018-031-032-141200-
CENTRAL IDAHO MOUNTAINS


CITY           SKY/WX    TMP DP  RH WIND       PRES   REMARKS
MCCALL         CLEAR     38  26  62 CALM      30.05R
HAILEY         CLEAR     46  30  53 NW10      30.09S
STANLEY          N/A     29  21  72 CALM      30.17R
SALMON         CLEAR     37  28  70 CALM      30.05R
CHALLIS        CLEAR     41  25  53 CALM      30.06S
$$

IDZ002-004-006-007-026-141200-
NORTHERN IDAHO


CITY           SKY/WX    TMP DP  RH WIND       PRES   REMARKS
LEWISTON       CLEAR     54  25  32 CALM      29.95R
LOWELL           N/A     44  40  85 NW5       30.03R
COEUR D`ALENE  CLEAR     46  34  61 NE9       29.99R
MULLAN PASS    CLEAR     47  25  42 SE6       30.07S
$$



USA.gov is the U.S. government's official web portal to all federal, state and local government web resources and services.